Location: Les Moreaux
(47.2278°N, 1.4966°E)
Time: 14:29:30
(UTC+00:00)

Okean-O - Pass Details

Date: 19 May 2025
Orbit: 628 x 631 km, 98.0° (Epoch: 17 June)

Event Time Altitude Azimuth Distance (km) Brightness Sun altitude
Exits shadow 20:03:39 - 147° (SSE) 2,388 5.0 -5.7°
Reaches altitude 10° 20:04:36 10° 144° (SE) 2,009 4.6 -5.8°
Maximum altitude 20:08:48 48° 70° (ENE) 831 3.0 -6.4°
Drops below altitude 10° 20:13:02 10° 357° (N) 2,023 5.9 -7.0°
Sets 20:15:17 0° 352° (N) 2,936 6.9 -7.3°
